TimeEDT,TemperatureF,Dew PointF,Humidity,Sea Level PressureIn,VisibilityMPH,Wind Direction,Wind SpeedMPH,Gust SpeedMPH,PrecipitationIn,Events,Conditions,WindDirDegrees,DateUTC
12:15 AM,53.4,24.8,33,29.99,10.0,WSW,12.7,20.7,N/A,,Overcast,240,2014-03-15 04:15:00
12:35 AM,53.6,24.6,33,29.98,10.0,WSW,15.0,23.0,N/A,,Overcast,240,2014-03-15 04:35:00
12:55 AM,53.6,24.8,33,29.98,10.0,WSW,19.6,24.2,N/A,,Overcast,250,2014-03-15 04:55:00
1:15 AM,53.8,25.0,33,29.98,10.0,WSW,17.3,27.6,N/A,,Overcast,240,2014-03-15 05:15:00
1:35 AM,53.6,26.4,35,29.98,10.0,WSW,15.0,25.3,N/A,,Overcast,240,2014-03-15 05:35:00
1:55 AM,53.6,26.8,36,29.98,10.0,WSW,17.3,28.8,N/A,,Overcast,250,2014-03-15 05:55:00
2:15 AM,53.6,27.9,37,29.98,10.0,WSW,11.5,23.0,N/A,,Overcast,250,2014-03-15 06:15:00
2:35 AM,53.6,28.2,38,29.98,10.0,WSW,13.8,26.5,N/A,,Overcast,240,2014-03-15 06:35:00
2:55 AM,53.2,28.6,39,29.99,10.0,WSW,13.8,23.0,N/A,,Overcast,240,2014-03-15 06:55:00
3:15 AM,53.1,29.3,40,29.98,10.0,WSW,15.0,21.9,N/A,,Overcast,250,2014-03-15 07:15:00
3:35 AM,52.7,29.8,42,29.98,10.0,WSW,13.8,20.7,N/A,,Overcast,250,2014-03-15 07:35:00
3:55 AM,52.7,30.2,42,29.97,10.0,WSW,16.1,24.2,N/A,,Overcast,250,2014-03-15 07:55:00
4:15 AM,52.7,30.4,42,29.97,10.0,WSW,13.8,25.3,N/A,,Overcast,250,2014-03-15 08:15:00
4:35 AM,52.2,30.7,44,29.96,10.0,WSW,11.5,17.3,N/A,,Overcast,240,2014-03-15 08:35:00
4:55 AM,51.8,31.1,45,29.97,10.0,West,11.5,17.3,N/A,,Overcast,260,2014-03-15 08:55:00
5:15 AM,51.8,31.1,45,29.97,10.0,WSW,13.8,19.6,N/A,,Overcast,250,2014-03-15 09:15:00
5:35 AM,51.4,31.6,47,29.98,10.0,West,10.4,18.4,N/A,,Overcast,270,2014-03-15 09:35:00
5:55 AM,51.1,32.0,48,29.98,10.0,West,12.7,17.3,N/A,,Overcast,260,2014-03-15 09:55:00
6:15 AM,51.1,31.8,48,29.98,10.0,West,10.4,26.5,N/A,,Overcast,260,2014-03-15 10:15:00
6:35 AM,51.1,32.0,48,29.99,10.0,West,11.5,19.6,N/A,,Overcast,260,2014-03-15 10:35:00
6:55 AM,50.5,32.0,49,29.99,10.0,West,9.2,17.3,N/A,,Overcast,260,2014-03-15 10:55:00
7:15 AM,50.2,32.0,50,30.00,10.0,WSW,11.5,16.1,N/A,,Overcast,250,2014-03-15 11:15:00
7:35 AM,50.2,32.7,51,30.00,10.0,WSW,10.4,16.1,N/A,,Overcast,250,2014-03-15 11:35:00
7:55 AM,50.0,33.6,53,30.01,10.0,WSW,10.4,18.4,N/A,,Overcast,250,2014-03-15 11:55:00
8:15 AM,50.0,33.6,53,30.01,10.0,WSW,9.2,16.1,N/A,,Overcast,240,2014-03-15 12:15:00
8:35 AM,50.0,33.8,54,30.02,10.0,West,8.1,-,N/A,,Overcast,260,2014-03-15 12:35:00
8:55 AM,50.0,34.7,56,30.03,10.0,WSW,12.7,19.6,N/A,,Overcast,250,2014-03-15 12:55:00
9:15 AM,50.5,35.1,55,30.03,10.0,West,11.5,16.1,N/A,,Overcast,270,2014-03-15 13:15:00
9:35 AM,50.9,35.2,55,30.03,10.0,West,8.1,-,N/A,,Mostly Cloudy,270,2014-03-15 13:35:00
9:55 AM,51.1,35.4,55,30.05,10.0,West,11.5,21.9,N/A,,Scattered Clouds,280,2014-03-15 13:55:00
10:15 AM,51.4,34.9,53,30.05,10.0,West,13.8,23.0,N/A,,Mostly Cloudy,270,2014-03-15 14:15:00
10:35 AM,52.7,35.1,51,30.05,10.0,West,13.8,19.6,N/A,,Mostly Cloudy,280,2014-03-15 14:35:00
10:55 AM,53.4,34.3,48,30.06,10.0,WNW,11.5,18.4,N/A,,Mostly Cloudy,300,2014-03-15 14:55:00
11:15 AM,54.1,33.6,46,30.06,10.0,WNW,15.0,21.9,N/A,,Mostly Cloudy,300,2014-03-15 15:15:00
11:35 AM,54.9,33.4,44,30.07,10.0,West,18.4,25.3,N/A,,Scattered Clouds,270,2014-03-15 15:35:00
11:55 AM,54.9,32.0,42,30.06,10.0,WNW,10.4,23.0,N/A,,Scattered Clouds,290,2014-03-15 15:55:00
12:15 PM,55.9,31.8,40,30.06,10.0,West,15.0,24.2,N/A,,Scattered Clouds,270,2014-03-15 16:15:00
12:35 PM,56.1,30.4,38,30.06,10.0,West,15.0,21.9,N/A,,Clear,280,2014-03-15 16:35:00
12:55 PM,57.7,29.8,35,30.06,10.0,WNW,4.6,-,N/A,,Clear,290,2014-03-15 16:55:00
1:15 PM,58.1,28.8,33,30.06,10.0,West,15.0,20.7,N/A,,Clear,280,2014-03-15 17:15:00
1:35 PM,58.3,27.5,31,30.05,10.0,NW,15.0,24.2,N/A,,Clear,320,2014-03-15 17:35:00
2:15 PM,59.5,27.5,30,30.05,10.0,WNW,11.5,19.6,N/A,,Clear,300,2014-03-15 18:15:00
2:35 PM,60.3,25.7,27,30.04,10.0,WNW,10.4,21.9,N/A,,Clear,300,2014-03-15 18:35:00
2:55 PM,60.4,26.6,28,30.03,10.0,WNW,10.4,17.3,N/A,,Clear,300,2014-03-15 18:55:00
3:15 PM,61.9,25.5,25,30.03,10.0,WNW,15.0,18.4,N/A,,Clear,300,2014-03-15 19:15:00
3:35 PM,60.6,23.9,25,30.03,10.0,NW,12.7,19.6,N/A,,Clear,310,2014-03-15 19:35:00
3:55 PM,61.5,23.2,23,30.03,10.0,NW,15.0,20.7,N/A,,Clear,310,2014-03-15 19:55:00
4:15 PM,61.7,22.1,22,30.03,10.0,WNW,13.8,19.6,N/A,,Clear,300,2014-03-15 20:15:00
4:35 PM,61.5,24.1,24,30.02,10.0,WNW,8.1,16.1,N/A,,Clear,300,2014-03-15 20:35:00
4:55 PM,61.0,22.6,23,30.03,10.0,WNW,11.5,21.9,N/A,,Clear,300,2014-03-15 20:55:00
5:15 PM,61.3,20.8,21,30.03,10.0,WNW,11.5,21.9,N/A,,Clear,300,2014-03-15 21:15:00
5:35 PM,61.2,19.9,20,30.03,10.0,NNW,10.4,19.6,N/A,,Clear,330,2014-03-15 21:35:00
5:55 PM,61.0,20.7,21,30.03,10.0,NW,4.6,-,N/A,,Clear,320,2014-03-15 21:55:00
6:15 PM,61.0,21.9,22,30.03,10.0,WNW,5.8,-,N/A,,Clear,290,2014-03-15 22:15:00
6:35 PM,60.3,21.9,23,30.03,10.0,NW,5.8,-,N/A,,Clear,310,2014-03-15 22:35:00
6:55 PM,59.9,21.9,23,30.03,10.0,NW,5.8,-,N/A,,Clear,320,2014-03-15 22:55:00
7:15 PM,59.0,22.1,24,30.04,10.0,NNW,3.5,-,N/A,,Clear,330,2014-03-15 23:15:00
7:35 PM,57.9,22.6,26,30.05,10.0,NNW,3.5,-,N/A,,Clear,330,2014-03-15 23:35:00
7:55 PM,57.2,22.1,26,30.05,10.0,NNW,4.6,-,N/A,,Clear,330,2014-03-15 23:55:00
8:15 PM,56.7,21.9,26,30.05,10.0,NW,4.6,-,N/A,,Clear,320,2014-03-16 00:15:00
8:35 PM,56.1,21.9,27,30.05,10.0,NW,5.8,-,N/A,,Clear,320,2014-03-16 00:35:00
8:55 PM,55.8,21.9,27,30.05,10.0,NNW,3.5,-,N/A,,Clear,340,2014-03-16 00:55:00
9:15 PM,55.2,22.1,28,30.05,10.0,NNW,3.5,-,N/A,,Clear,340,2014-03-16 01:15:00
9:35 PM,55.4,22.5,28,30.05,10.0,Calm,Calm,-,N/A,,Clear,0,2014-03-16 01:35:00
9:55 PM,54.7,22.8,29,30.06,10.0,Calm,Calm,-,N/A,,Clear,0,2014-03-16 01:55:00
10:15 PM,52.7,23.0,31,30.07,10.0,Calm,Calm,-,N/A,,Clear,0,2014-03-16 02:15:00
10:35 PM,53.8,22.8,30,30.07,10.0,Calm,Calm,-,N/A,,Clear,0,2014-03-16 02:35:00
10:55 PM,53.6,22.3,30,30.06,10.0,Calm,Calm,-,N/A,,Clear,0,2014-03-16 02:55:00
11:15 PM,53.2,21.9,29,30.07,10.0,NE,3.5,-,N/A,,Clear,50,2014-03-16 03:15:00
11:35 PM,53.4,21.9,29,30.06,10.0,ENE,3.5,-,N/A,,Clear,70,2014-03-16 03:35:00
11:55 PM,51.8,22.1,31,30.07,10.0,Calm,Calm,-,N/A,,Clear,0,2014-03-16 03:55:00